EZY2196 EGCC-EGKK

Flight info

Callsign EZY2196
Flight time 0h 50m
Altitude 19000
Route LISTO L612 HON N859 KIDLI
Aircraft A320/M-SDE3FGHIRWY/LB1

Departure

Time 2026-05-06 21:51
Airport Manchester Airport (EGCC)

Arrival

Time 2026-05-06 22:42
Airport London Gatwick Airport (EGKK)
Time Latitude Longitude Altitude Speed Heading
2026-05-06 21:08 53.36920 -2.28749 248 ft 0 kts 134°
2026-05-06 21:35 53.36929 -2.28764 247 ft 4 kts 147°
2026-05-06 21:36 53.36951 -2.28776 247 ft 4 kts 187°
2026-05-06 21:36 53.36974 -2.28762 247 ft 3 kts 224°
2026-05-06 21:36 53.36976 -2.28759 247 ft 0 kts 225°
2026-05-06 21:41 53.36966 -2.28776 247 ft 10 kts 225°
2026-05-06 21:41 53.36928 -2.28838 247 ft 0 kts 225°
2026-05-06 21:43 53.36923 -2.28847 247 ft 3 kts 225°
2026-05-06 21:43 53.36893 -2.28898 247 ft 9 kts 225°
2026-05-06 21:44 53.36839 -2.28986 247 ft 13 kts 221°
2026-05-06 21:44 53.36749 -2.29033 247 ft 14 kts 163°
2026-05-06 21:44 53.36668 -2.28915 247 ft 17 kts 142°
2026-05-06 21:44 53.36576 -2.28771 247 ft 21 kts 120°
2026-05-06 21:45 53.36471 -2.28577 247 ft 25 kts 135°
2026-05-06 21:45 53.36347 -2.28461 247 ft 20 kts 154°
2026-05-06 21:45 53.36233 -2.28283 247 ft 25 kts 135°
2026-05-06 21:45 53.36105 -2.28068 247 ft 24 kts 135°
2026-05-06 21:46 53.35997 -2.27891 247 ft 23 kts 137°
2026-05-06 21:46 53.35855 -2.27857 247 ft 23 kts 185°
2026-05-06 21:46 53.35679 -2.27887 247 ft 27 kts 186°
2026-05-06 21:46 53.35561 -2.28034 240 ft 25 kts 229°
2026-05-06 21:47 53.35413 -2.28162 238 ft 22 kts 191°
2026-05-06 21:47 53.35257 -2.28265 234 ft 27 kts 218°
2026-05-06 21:47 53.35148 -2.28464 231 ft 25 kts 228°
2026-05-06 21:47 53.35039 -2.28696 232 ft 26 kts 230°
2026-05-06 21:48 53.34907 -2.28931 225 ft 30 kts 226°
2026-05-06 21:48 53.34779 -2.29171 213 ft 25 kts 231°
2026-05-06 21:48 53.34693 -2.29319 210 ft 12 kts 208°
2026-05-06 21:48 53.34679 -2.29327 210 ft 0 kts 198°
2026-05-06 21:49 53.34671 -2.29332 207 ft 3 kts 198°
2026-05-06 21:49 53.34641 -2.29342 214 ft 6 kts 187°
2026-05-06 21:50 53.34587 -2.29331 213 ft 10 kts 161°
2026-05-06 21:50 53.34545 -2.29224 210 ft 14 kts 77°
2026-05-06 21:50 53.34614 -2.29065 211 ft 19 kts 51°
2026-05-06 21:50 53.34698 -2.28893 220 ft 19 kts 51°
2026-05-06 21:51 53.34800 -2.28682 232 ft 40 kts 51°
2026-05-06 21:51 53.35154 -2.27950 242 ft 114 kts 51°
2026-05-06 21:51 53.35751 -2.26694 435 ft 148 kts 53°
2026-05-06 21:51 53.36364 -2.25309 1134 ft 154 kts 58°
2026-05-06 21:52 53.37023 -2.23863 1893 ft 157 kts 56°
2026-05-06 21:52 53.37562 -2.22252 2425 ft 168 kts 82°
2026-05-06 21:52 53.37407 -2.20246 2799 ft 186 kts 117°
2026-05-06 21:52 53.36473 -2.18610 3174 ft 207 kts 147°
2026-05-06 21:53 53.35181 -2.17305 3610 ft 229 kts 156°
2026-05-06 21:53 53.33569 -2.16818 4140 ft 250 kts 184°
2026-05-06 21:53 53.31788 -2.17119 4806 ft 262 kts 187°
2026-05-06 21:53 53.29971 -2.17428 4978 ft 263 kts 187°
2026-05-06 21:54 53.28144 -2.17729 5006 ft 263 kts 187°
2026-05-06 21:54 53.26318 -2.18023 5009 ft 263 kts 187°
2026-05-06 21:54 53.24502 -2.18311 5009 ft 263 kts 187°
2026-05-06 21:54 53.22680 -2.18596 5008 ft 264 kts 186°
2026-05-06 21:55 53.20842 -2.18884 5036 ft 265 kts 186°
2026-05-06 21:55 53.19003 -2.19174 5051 ft 266 kts 186°
2026-05-06 21:55 53.17185 -2.19460 5056 ft 266 kts 187°
2026-05-06 21:55 53.15342 -2.19699 5056 ft 266 kts 181°
2026-05-06 21:56 53.13504 -2.19269 5080 ft 271 kts 164°
2026-05-06 21:56 53.11718 -2.18070 5877 ft 278 kts 159°
2026-05-06 21:56 53.09935 -2.16817 6953 ft 280 kts 159°
2026-05-06 21:56 53.08123 -2.15564 7935 ft 283 kts 159°
2026-05-06 21:57 53.06289 -2.14307 8911 ft 287 kts 158°
2026-05-06 21:57 53.04434 -2.13036 9878 ft 291 kts 158°
2026-05-06 21:57 53.02517 -2.11724 10497 ft 307 kts 159°
2026-05-06 21:57 53.00462 -2.10319 10836 ft 331 kts 159°
2026-05-06 21:58 52.98258 -2.08813 11217 ft 351 kts 158°
2026-05-06 21:58 52.95970 -2.07244 11883 ft 359 kts 158°
2026-05-06 21:58 52.93646 -2.05643 12634 ft 365 kts 159°
2026-05-06 21:58 52.91279 -2.04014 13428 ft 369 kts 159°
2026-05-06 21:59 52.89705 -2.02930 13947 ft 372 kts 159°
2026-05-06 21:59 52.87300 -2.01278 14670 ft 376 kts 159°
2026-05-06 21:59 52.84871 -1.99609 15389 ft 379 kts 159°
2026-05-06 21:59 52.82421 -1.97933 16106 ft 382 kts 159°
2026-05-06 22:00 52.79954 -1.96255 16816 ft 385 kts 159°
2026-05-06 22:00 52.77463 -1.94560 17500 ft 389 kts 159°
2026-05-06 22:00 52.74951 -1.92848 18187 ft 392 kts 159°
2026-05-06 22:00 52.72418 -1.91126 18774 ft 395 kts 159°
2026-05-06 22:01 52.69867 -1.89397 18991 ft 397 kts 159°
2026-05-06 22:01 52.67283 -1.87644 19055 ft 410 kts 159°
2026-05-06 22:01 52.64601 -1.85827 19069 ft 422 kts 159°
2026-05-06 22:01 52.61876 -1.83981 19075 ft 425 kts 159°
2026-05-06 22:02 52.59139 -1.82131 19078 ft 425 kts 159°
2026-05-06 22:02 52.56393 -1.80278 19083 ft 425 kts 159°
2026-05-06 22:02 52.53659 -1.78436 19086 ft 425 kts 159°
2026-05-06 22:02 52.50919 -1.76590 19080 ft 425 kts 159°
2026-05-06 22:03 52.48181 -1.74748 19085 ft 425 kts 159°
2026-05-06 22:03 52.45444 -1.72915 19085 ft 425 kts 159°
2026-05-06 22:03 52.42696 -1.71078 19085 ft 425 kts 159°
2026-05-06 22:03 52.39970 -1.69215 19086 ft 425 kts 158°
2026-05-06 22:04 52.37261 -1.67404 19082 ft 425 kts 160°
2026-05-06 22:04 52.34501 -1.65699 19077 ft 425 kts 161°
2026-05-06 22:04 52.31707 -1.64125 19073 ft 424 kts 163°
2026-05-06 22:04 52.28896 -1.62656 19066 ft 424 kts 164°
2026-05-06 22:05 52.26078 -1.61238 19035 ft 424 kts 164°
2026-05-06 22:05 52.23256 -1.59831 19040 ft 424 kts 164°
2026-05-06 22:05 52.20436 -1.58416 19043 ft 424 kts 164°
2026-05-06 22:05 52.17625 -1.56986 19046 ft 424 kts 163°
2026-05-06 22:06 52.14809 -1.55532 19045 ft 424 kts 163°
2026-05-06 22:06 52.11999 -1.54071 19046 ft 424 kts 163°
2026-05-06 22:06 52.09196 -1.52608 19050 ft 424 kts 163°
2026-05-06 22:06 52.06386 -1.51144 19048 ft 424 kts 163°
2026-05-06 22:07 52.03577 -1.49687 19044 ft 424 kts 163°
2026-05-06 22:07 52.00761 -1.48234 19045 ft 424 kts 163°
2026-05-06 22:07 51.97968 -1.46797 18984 ft 415 kts 163°
2026-05-06 22:07 51.95246 -1.45400 18500 ft 407 kts 163°
2026-05-06 22:08 51.92561 -1.44024 17861 ft 403 kts 163°
2026-05-06 22:08 51.89932 -1.42674 17219 ft 399 kts 163°
2026-05-06 22:08 51.87262 -1.41308 16565 ft 396 kts 163°
2026-05-06 22:08 51.84644 -1.39970 15947 ft 393 kts 163°
2026-05-06 22:09 51.82046 -1.38644 15364 ft 390 kts 163°
2026-05-06 22:09 51.79488 -1.37339 15082 ft 390 kts 163°
2026-05-06 22:09 51.76898 -1.36022 15056 ft 390 kts 163°
2026-05-06 22:09 51.74397 -1.34324 15062 ft 392 kts 149°
2026-05-06 22:10 51.72136 -1.31983 15052 ft 378 kts 147°
2026-05-06 22:10 51.69994 -1.29696 15053 ft 360 kts 147°
2026-05-06 22:10 51.67958 -1.27518 15053 ft 343 kts 147°
2026-05-06 22:10 51.66016 -1.25438 15055 ft 328 kts 147°
2026-05-06 22:11 51.64164 -1.23419 15052 ft 314 kts 145°
2026-05-06 22:11 51.62416 -1.21405 14916 ft 305 kts 144°
2026-05-06 22:11 51.60729 -1.19398 14798 ft 297 kts 143°
2026-05-06 22:11 51.59080 -1.17418 14558 ft 294 kts 143°
2026-05-06 22:12 51.57447 -1.15460 14320 ft 292 kts 143°
2026-05-06 22:12 51.55827 -1.13529 14078 ft 289 kts 143°
2026-05-06 22:12 51.54231 -1.11633 14017 ft 279 kts 144°
2026-05-06 22:12 51.52701 -1.09826 14024 ft 267 kts 144°
2026-05-06 22:13 51.51246 -1.08116 13982 ft 259 kts 144°
2026-05-06 22:13 51.49799 -1.06418 13784 ft 256 kts 144°
2026-05-06 22:13 51.48363 -1.04733 13531 ft 255 kts 144°
2026-05-06 22:13 51.46933 -1.03059 13267 ft 254 kts 144°
2026-05-06 22:14 51.45507 -1.01390 13003 ft 253 kts 144°
2026-05-06 22:14 51.44091 -0.99730 12737 ft 252 kts 144°
2026-05-06 22:14 51.42680 -0.98076 12468 ft 251 kts 144°
2026-05-06 22:14 51.41274 -0.96432 12199 ft 250 kts 144°
2026-05-06 22:15 51.39873 -0.94793 11916 ft 249 kts 144°
2026-05-06 22:15 51.38478 -0.93164 11634 ft 248 kts 144°
2026-05-06 22:15 51.37086 -0.91541 11369 ft 247 kts 144°
2026-05-06 22:15 51.35702 -0.89930 11089 ft 246 kts 144°
2026-05-06 22:16 51.34323 -0.88325 10820 ft 245 kts 144°
2026-05-06 22:16 51.32949 -0.86730 10546 ft 243 kts 144°
2026-05-06 22:16 51.31581 -0.85141 10250 ft 242 kts 144°
2026-05-06 22:16 51.30222 -0.83561 9981 ft 241 kts 144°
2026-05-06 22:17 51.28865 -0.81984 9676 ft 240 kts 144°
2026-05-06 22:17 51.27516 -0.80418 9373 ft 239 kts 144°
2026-05-06 22:17 51.26174 -0.78862 9068 ft 238 kts 144°
2026-05-06 22:17 51.24838 -0.77317 8764 ft 236 kts 144°
2026-05-06 22:18 51.23512 -0.75782 8452 ft 235 kts 144°
2026-05-06 22:18 51.22190 -0.74256 8165 ft 234 kts 144°
2026-05-06 22:18 51.20877 -0.72739 7877 ft 233 kts 144°
2026-05-06 22:18 51.19583 -0.71244 7586 ft 231 kts 144°
2026-05-06 22:19 51.18285 -0.69745 7290 ft 230 kts 144°
2026-05-06 22:19 51.16995 -0.68253 7068 ft 227 kts 144°
2026-05-06 22:19 51.15710 -0.66771 7029 ft 229 kts 144°
2026-05-06 22:19 51.14415 -0.65278 7029 ft 229 kts 144°
2026-05-06 22:20 51.13124 -0.63790 7030 ft 230 kts 144°
2026-05-06 22:20 51.11827 -0.62300 7030 ft 230 kts 144°
2026-05-06 22:20 51.10532 -0.60813 7030 ft 230 kts 144°
2026-05-06 22:20 51.09235 -0.59326 7030 ft 230 kts 144°
2026-05-06 22:21 51.07939 -0.57840 7034 ft 230 kts 144°
2026-05-06 22:21 51.06644 -0.56353 7032 ft 230 kts 144°
2026-05-06 22:21 51.05349 -0.54866 7031 ft 230 kts 144°
2026-05-06 22:21 51.04053 -0.53381 7032 ft 229 kts 144°
2026-05-06 22:22 51.02793 -0.51824 7033 ft 230 kts 137°
2026-05-06 22:22 51.01708 -0.49972 7032 ft 230 kts 127°
2026-05-06 22:22 51.00823 -0.47867 7032 ft 229 kts 118°
2026-05-06 22:22 51.00107 -0.45604 7033 ft 229 kts 116°
2026-05-06 22:23 50.99397 -0.43337 7032 ft 229 kts 116°
2026-05-06 22:23 50.98682 -0.41071 7032 ft 229 kts 116°
2026-05-06 22:23 50.97965 -0.38812 7032 ft 229 kts 116°
2026-05-06 22:23 50.97250 -0.36558 6941 ft 228 kts 116°
2026-05-06 22:24 50.96550 -0.34342 6650 ft 227 kts 116°
2026-05-06 22:24 50.95843 -0.32108 6365 ft 226 kts 116°
2026-05-06 22:24 50.95140 -0.29883 6064 ft 225 kts 116°
2026-05-06 22:24 50.94443 -0.27677 5768 ft 223 kts 116°
2026-05-06 22:25 50.93746 -0.25480 5468 ft 222 kts 116°
2026-05-06 22:25 50.93046 -0.23279 5097 ft 226 kts 116°
2026-05-06 22:25 50.92347 -0.21083 4953 ft 220 kts 116°
2026-05-06 22:25 50.91669 -0.18952 4796 ft 214 kts 116°
2026-05-06 22:26 50.90999 -0.16852 4592 ft 213 kts 116°
2026-05-06 22:26 50.90335 -0.14768 4367 ft 212 kts 116°
2026-05-06 22:26 50.89674 -0.12695 4128 ft 210 kts 116°
2026-05-06 22:26 50.89017 -0.10635 4021 ft 209 kts 116°
2026-05-06 22:27 50.88407 -0.08552 4010 ft 209 kts 106°
2026-05-06 22:27 50.88214 -0.06291 4012 ft 207 kts 85°
2026-05-06 22:27 50.88512 -0.04079 4013 ft 206 kts 66°
2026-05-06 22:27 50.89254 -0.02159 4011 ft 205 kts 47°
2026-05-06 22:28 50.90349 -0.00745 4016 ft 204 kts 28°
2026-05-06 22:28 50.91676 0.00021 4004 ft 204 kts
2026-05-06 22:28 50.93086 0.00043 4008 ft 203 kts 349°
2026-05-06 22:28 50.94419 -0.00665 4014 ft 203 kts 331°
2026-05-06 22:29 50.95531 -0.02037 4008 ft 204 kts 312°
2026-05-06 22:29 50.96291 -0.03926 4012 ft 205 kts 293°
2026-05-06 22:29 50.96680 -0.06075 4009 ft 205 kts 284°
2026-05-06 22:29 50.96995 -0.08282 4009 ft 205 kts 283°
2026-05-06 22:30 50.97298 -0.10483 4011 ft 206 kts 283°
2026-05-06 22:30 50.97604 -0.12716 4010 ft 206 kts 283°
2026-05-06 22:30 50.97918 -0.14929 4012 ft 205 kts 284°
2026-05-06 22:30 50.98258 -0.17097 3909 ft 197 kts 285°
2026-05-06 22:31 50.98584 -0.19124 3788 ft 182 kts 285°
2026-05-06 22:31 50.98878 -0.21002 3650 ft 169 kts 285°
2026-05-06 22:31 50.99149 -0.22754 3514 ft 158 kts 285°
2026-05-06 22:31 50.99402 -0.24410 3381 ft 151 kts 285°
2026-05-06 22:32 50.99643 -0.25993 3230 ft 145 kts 285°
2026-05-06 22:32 50.99879 -0.27545 3082 ft 145 kts 285°
2026-05-06 22:32 51.00116 -0.29100 3017 ft 145 kts 285°
2026-05-06 22:32 51.00351 -0.30657 3013 ft 145 kts 285°
2026-05-06 22:33 51.00584 -0.32212 3011 ft 145 kts 285°
2026-05-06 22:33 51.00817 -0.33770 3012 ft 145 kts 285°
2026-05-06 22:33 51.01049 -0.35325 3013 ft 145 kts 285°
2026-05-06 22:33 51.01280 -0.36886 3012 ft 145 kts 285°
2026-05-06 22:34 51.01513 -0.38445 3011 ft 145 kts 285°
2026-05-06 22:34 51.01748 -0.40018 3017 ft 150 kts 285°
2026-05-06 22:34 51.01994 -0.41647 3014 ft 153 kts 285°
2026-05-06 22:34 51.02241 -0.43277 3015 ft 154 kts 285°
2026-05-06 22:35 51.02492 -0.44926 3013 ft 154 kts 285°
2026-05-06 22:35 51.02743 -0.46581 3014 ft 154 kts 285°
2026-05-06 22:35 51.02994 -0.48236 3014 ft 154 kts 285°
2026-05-06 22:35 51.03243 -0.49884 3015 ft 154 kts 285°
2026-05-06 22:36 51.03657 -0.51420 2992 ft 151 kts 317°
2026-05-06 22:36 51.04597 -0.52002 3013 ft 148 kts
2026-05-06 22:36 51.05601 -0.51644 3024 ft 149 kts 20°
2026-05-06 22:36 51.06513 -0.50874 3014 ft 149 kts 37°
2026-05-06 22:37 51.07281 -0.49768 3016 ft 149 kts 44°
2026-05-06 22:37 51.08016 -0.48603 3015 ft 149 kts 44°
2026-05-06 22:37 51.08751 -0.47434 3013 ft 149 kts 44°
2026-05-06 22:37 51.09485 -0.46268 3013 ft 149 kts 44°
2026-05-06 22:38 51.10218 -0.45103 3015 ft 150 kts 44°
2026-05-06 22:38 51.10957 -0.43929 3014 ft 151 kts 44°
2026-05-06 22:38 51.11536 -0.42548 2942 ft 152 kts 73°
2026-05-06 22:38 51.11763 -0.40920 2820 ft 152 kts 76°
2026-05-06 22:39 51.11994 -0.39280 2610 ft 151 kts 76°
2026-05-06 22:39 51.12223 -0.37652 2421 ft 150 kts 76°
2026-05-06 22:39 51.12449 -0.36038 2237 ft 148 kts 75°
2026-05-06 22:39 51.12667 -0.34479 2019 ft 141 kts 75°
2026-05-06 22:40 51.12877 -0.32970 1826 ft 138 kts 75°
2026-05-06 22:40 51.13085 -0.31484 1636 ft 137 kts 75°
2026-05-06 22:40 51.13291 -0.30005 1452 ft 136 kts 75°
2026-05-06 22:40 51.13497 -0.28526 1257 ft 137 kts 75°
2026-05-06 22:41 51.13908 -0.25568 857 ft 137 kts 77°
2026-05-06 22:41 51.14113 -0.24093 673 ft 137 kts 77°
2026-05-06 22:41 51.14313 -0.22649 484 ft 131 kts 77°
2026-05-06 22:42 51.14509 -0.21239 321 ft 130 kts 78°
2026-05-06 22:42 51.14700 -0.19857 215 ft 120 kts 77°
2026-05-06 22:42 51.14821 -0.18985 206 ft 37 kts 77°
2026-05-06 22:42 51.14838 -0.18869 202 ft 13 kts 76°
2026-05-06 22:43 51.14889 -0.18626 207 ft 32 kts 60°
2026-05-06 22:43 51.15041 -0.18317 216 ft 29 kts 52°
2026-05-06 22:43 51.15069 -0.18260 209 ft 0 kts 51°
2026-05-06 22:44 51.15076 -0.18246 208 ft 8 kts 50°
2026-05-06 22:45 51.15157 -0.18197 207 ft 17 kts
2026-05-06 22:45 51.15218 -0.18054 211 ft 20 kts 74°
2026-05-06 22:45 51.15255 -0.17785 207 ft 29 kts 78°
2026-05-06 22:45 51.15295 -0.17484 205 ft 24 kts 81°
2026-05-06 22:46 51.15356 -0.17346 209 ft 9 kts 52°
2026-05-06 22:46 51.15387 -0.17199 204 ft 15 kts 73°
2026-05-06 22:46 51.15423 -0.17016 207 ft 20 kts 78°
2026-05-06 22:46 51.15447 -0.16859 212 ft 7 kts 61°
2026-05-06 22:47 51.15485 -0.16833 204 ft 5 kts
2026-05-06 22:47 51.15496 -0.16836 205 ft 0 kts 348°
2026-05-06 22:52 51.15497 -0.16836 205 ft 0 kts 348°